• En España
  • Lista de países
  • Para 7 días
  • Temperatura del agua
  • Mapa Satelital
  • El tiempo en el mapa
  • Informadores
  • user-avatar
    Iniciar sesión

    Tiempo cada hora Soelden

    Hoy, 24 Septiembre, Domingo

    Tiempo Temperatura Precipitaciones Viento Presión Humedad
    00:00 +2°C° 0,1 mm 1 mps 584 mmHg 89%
    01:00 +2°C° 0,1 mm 1 mps 584 mmHg 89%
    02:00 +2°C° 0,4 mm 1 mps 583 mmHg 89%
    03:00 +3°C° 0,4 mm 1 mps 583 mmHg 90%
    04:00 +3°C° 0,4 mm 1 mps 583 mmHg 90%
    05:00 +3°C° 0,6 mm 1 mps 583 mmHg 90%
    06:00 +3°C° 0,6 mm 1 mps 583 mmHg 91%
    07:00 +3°C° 0,6 mm 1 mps 583 mmHg 91%
    08:00 +3°C° 0,4 mm 1 mps 584 mmHg 87%
    09:00 +3°C° 0,4 mm 2 mps 584 mmHg 82%
    10:00 +4°C° 0,4 mm 2 mps 585 mmHg 77%
    11:00 +5°C° 0,2 mm 2 mps 585 mmHg 73%
    12:00 +6°C° 0,2 mm 2 mps 585 mmHg 69%
    13:00 +7°C° 0,2 mm 2 mps 586 mmHg 64%
    14:00 +7°C° 0,2 mm 2 mps 586 mmHg 65%
    15:00 +7°C° 0,2 mm 2 mps 585 mmHg 65%
    16:00 +7°C° 0,2 mm 1 mps 585 mmHg 65%
    17:00 +6°C° 0,1 mm 1 mps 585 mmHg 71%
    18:00 +4°C° 0,1 mm 1 mps 584 mmHg 78%
    19:00 +2°C° 0,1 mm 1 mps 583 mmHg 84%
    20:00 +2°C° 0 mm 1 mps 583 mmHg 85%
    21:00 +1°C° 0 mm 1 mps 583 mmHg 86%
    22:00 +1°C° 0 mm 1 mps 583 mmHg 88%
    23:00 +1°C° 0 mm 1 mps 583 mmHg 88%

    Mañana, 25 Septiembre, Lunes

    Tiempo Temperatura Precipitaciones Viento Presión Humedad
    00:00 0°C° 0 mm 1 mps 583 mmHg 89%
    01:00 0°C° 0 mm 1 mps 582 mmHg 89%
    02:00 0°C° 0 mm 1 mps 582 mmHg 88%
    03:00 0°C° 0 mm 1 mps 582 mmHg 87%
    04:00 0°C° 0 mm 1 mps 582 mmHg 86%
    05:00 0°C° 0 mm 1 mps 582 mmHg 84%
    06:00 0°C° 0 mm 1 mps 582 mmHg 82%
    07:00 +1°C° 0 mm 1 mps 582 mmHg 80%
    08:00 +2°C° 0 mm 0 mps 584 mmHg 72%
    09:00 +4°C° 0 mm 0 mps 585 mmHg 63%
    10:00 +7°C° 0 mm 0 mps 586 mmHg 55%
    11:00 +8°C° 0 mm 1 mps 586 mmHg 53%
    12:00 +9°C° 0 mm 1 mps 586 mmHg 52%
    13:00 +9°C° 0 mm 1 mps 586 mmHg 51%
    14:00 +9°C° 0,1 mm 1 mps 585 mmHg 54%
    15:00 +8°C° 0,1 mm 1 mps 585 mmHg 57%
    16:00 +8°C° 0,1 mm 1 mps 585 mmHg 60%
    17:00 +6°C° 0,1 mm 1 mps 584 mmHg 69%
    18:00 +4°C° 0,1 mm 1 mps 583 mmHg 77%
    19:00 +2°C° 0,1 mm 1 mps 583 mmHg 86%
    20:00 +1°C° 0 mm 1 mps 583 mmHg 87%
    21:00 +1°C° 0 mm 1 mps 583 mmHg 89%
    22:00 +1°C° 0 mm 1 mps 583 mmHg 91%
    23:00 +1°C° 0 mm 1 mps 583 mmHg 91%

    Pasado mañana, 26 Septiembre, Martes

    Tiempo Temperatura Precipitaciones Viento Presión Humedad
    00:00 +1°C° 0 mm 1 mps 583 mmHg 91%
    01:00 +1°C° 0 mm 1 mps 583 mmHg 91%
    02:00 +1°C° 0 mm 1 mps 583 mmHg 92%
    03:00 +1°C° 0 mm 1 mps 583 mmHg 92%
    04:00 +1°C° 0 mm 1 mps 583 mmHg 92%
    05:00 +1°C° 0 mm 1 mps 583 mmHg 91%
    06:00 +1°C° 0 mm 1 mps 584 mmHg 90%
    07:00 +2°C° 0 mm 1 mps 584 mmHg 89%
    08:00 +4°C° 0 mm 1 mps 585 mmHg 81%
    09:00 +6°C° 0 mm 1 mps 586 mmHg 73%
    10:00 +8°C° 0 mm 1 mps 587 mmHg 65%
    11:00 +8°C° 0 mm 1 mps 587 mmHg 63%
    12:00 +9°C° 0 mm 1 mps 587 mmHg 61%
    13:00 +9°C° 0 mm 1 mps 587 mmHg 59%
    14:00 +9°C° 0,1 mm 1 mps 587 mmHg 61%
    15:00 +9°C° 0,1 mm 1 mps 587 mmHg 63%
    16:00 +8°C° 0,1 mm 1 mps 587 mmHg 65%
    17:00 +6°C° 0 mm 1 mps 586 mmHg 73%
    18:00 +4°C° 0 mm 1 mps 585 mmHg 80%
    19:00 +2°C° 0 mm 0 mps 585 mmHg 87%
    20:00 +1°C° 0 mm 0 mps 585 mmHg 87%
    21:00 +2°C° 0 mm 1 mps 585 mmHg 88%
    22:00 +2°C° 0 mm 1 mps 585 mmHg 88%
    23:00 +2°C° 0 mm 1 mps 585 mmHg 88%

    27 Septiembre, Miércoles

    Tiempo Temperatura Precipitaciones Viento Presión Humedad
    00:00 +1°C° 0 mm 1 mps 585 mmHg 88%
    01:00 +1°C° 0 mm 1 mps 585 mmHg 87%
    02:00 +1°C° 0 mm 1 mps 585 mmHg 87%
    03:00 +1°C° 0 mm 1 mps 585 mmHg 87%
    04:00 +1°C° 0 mm 1 mps 584 mmHg 86%
    05:00 +1°C° 0 mm 1 mps 585 mmHg 84%
    06:00 +1°C° 0 mm 1 mps 585 mmHg 83%
    07:00 +1°C° 0 mm 1 mps 585 mmHg 81%
    08:00 +4°C° 0 mm 1 mps 587 mmHg 74%
    09:00 +6°C° 0 mm 1 mps 588 mmHg 67%
    10:00 +9°C° 0 mm 1 mps 589 mmHg 60%
    11:00 +9°C° 0 mm 1 mps 589 mmHg 59%
    12:00 +10°C° 0 mm 1 mps 589 mmHg 57%
    13:00 +11°C° 0 mm 1 mps 590 mmHg 55%
    14:00 +10°C° 0,1 mm 1 mps 589 mmHg 57%
    15:00 +10°C° 0,1 mm 1 mps 589 mmHg 59%
    16:00 +10°C° 0,1 mm 1 mps 589 mmHg 61%
    17:00 +7°C° 0 mm 1 mps 588 mmHg 70%
    18:00 +4°C° 0 mm 0 mps 587 mmHg 78%
    19:00 +2°C° 0 mm 0 mps 586 mmHg 87%
    20:00 +1°C° 0 mm 0 mps 586 mmHg 87%
    21:00 +2°C° 0 mm 1 mps 587 mmHg 87%
    22:00 +2°C° 0 mm 1 mps 587 mmHg 88%
    23:00 +2°C° 0 mm 1 mps 587 mmHg 87%

    28 Septiembre, Jueves

    Tiempo Temperatura Precipitaciones Viento Presión Humedad
    00:00 +2°C° 0 mm 1 mps 587 mmHg 87%
    01:00 +1°C° 0 mm 1 mps 587 mmHg 87%
    02:00 +1°C° 0 mm 1 mps 586 mmHg 86%
    03:00 +1°C° 0 mm 1 mps 586 mmHg 86%
    04:00 +1°C° 0 mm 1 mps 586 mmHg 86%
    05:00 +2°C° 0 mm 1 mps 587 mmHg 84%
    06:00 +2°C° 0 mm 1 mps 587 mmHg 83%
    07:00 +2°C° 0 mm 1 mps 587 mmHg 82%
    08:00 +5°C° 0 mm 1 mps 589 mmHg 73%
    09:00 +8°C° 0 mm 1 mps 590 mmHg 64%
    10:00 +10°C° 0 mm 1 mps 592 mmHg 54%
    11:00 +11°C° 0 mm 1 mps 592 mmHg 52%
    12:00 +12°C° 0 mm 1 mps 592 mmHg 49%
    13:00 +13°C° 0 mm 1 mps 592 mmHg 47%
    14:00 +12°C° 0 mm 1 mps 592 mmHg 49%
    15:00 +12°C° 0 mm 1 mps 592 mmHg 51%
    16:00 +10°C° 0 mm 2 mps 591 mmHg 54%
    17:00 +9°C° 0 mm 1 mps 590 mmHg 64%
    18:00 +6°C° 0 mm 1 mps 589 mmHg 74%
    19:00 +4°C° 0 mm 1 mps 589 mmHg 84%
    20:00 +3°C° 0 mm 1 mps 588 mmHg 86%
    21:00 +2°C° 0 mm 0 mps 588 mmHg 88%
    22:00 +1°C° 0 mm 0 mps 588 mmHg 91%
    23:00 +1°C° 0 mm 0 mps 588 mmHg 90%

    29 Septiembre, Viernes

    Tiempo Temperatura Precipitaciones Viento Presión Humedad
    00:00 +2°C° 0 mm 1 mps 588 mmHg 90%
    01:00 +2°C° 0 mm 1 mps 588 mmHg 90%
    02:00 +2°C° 0 mm 1 mps 588 mmHg 89%
    03:00 +2°C° 0 mm 1 mps 587 mmHg 89%
    04:00 +2°C° 0 mm 1 mps 587 mmHg 88%
    05:00 +2°C° 0 mm 1 mps 587 mmHg 85%
    06:00 +2°C° 0 mm 1 mps 587 mmHg 83%
    07:00 +2°C° 0 mm 1 mps 588 mmHg 80%
    08:00 +5°C° 0 mm 1 mps 589 mmHg 70%
    09:00 +8°C° 0 mm 1 mps 590 mmHg 59%
    10:00 +10°C° 0 mm 0 mps 591 mmHg 48%
    11:00 +11°C° 0 mm 1 mps 591 mmHg 46%
    12:00 +12°C° 0 mm 1 mps 591 mmHg 44%
    13:00 +13°C° 0 mm 1 mps 591 mmHg 42%
    14:00 +12°C° 0 mm 1 mps 591 mmHg 45%
    15:00 +12°C° 0 mm 1 mps 590 mmHg 48%
    16:00 +11°C° 0 mm 1 mps 590 mmHg 51%
    17:00 +9°C° 0 mm 1 mps 589 mmHg 62%
    18:00 +6°C° 0 mm 1 mps 588 mmHg 74%
    19:00 +4°C° 0 mm 1 mps 586 mmHg 85%
    20:00 +4°C° 0 mm 1 mps 586 mmHg 86%
    21:00 +3°C° 0 mm 1 mps 586 mmHg 87%
    22:00 +3°C° 0 mm 1 mps 586 mmHg 88%
    23:00 +3°C° 0 mm 1 mps 586 mmHg 88%
    Mostrar más